Regional Weather Roundup
Issued by NWS New Orleans/Baton Rouge, LA

Home | Current Version | Previous Version | Graphics & Text | Print | Product List | Glossary On
Versions: 1 2 3 4 5 6 7 8 9 10 11 12 13 14 15 16 17 18 19 20 21 22 23 24 25 26 27 28 29 30 31 32 33 34 35 36 37 38 39 40 41 42 43 44 45 46 47 48 49 50
094
ASUS44 KLIX 172210
RWRLIX
NEW ORLEANS REGIONAL WEATHER ROUNDUP
NATIONAL WEATHER SERVICE NEW ORLEANS LA
500 PM CDT THU APR 17 2014

NOTE: "FAIR" INDICATES FEW OR NO CLOUDS BELOW 12,000 FEET WITH NO
      SIGNIFICANT WEATHER AND/OR OBSTRUCTIONS TO VISIBILITY.
      SKY/WX - SKY CONDITION AND SIGNIFICANT WEATHER.
      TMP - AIR TEMPERATURE.     DP    - DEWPOINT TEMPERATURE.
      RH  - RELATIVE HUMIDITY.   PRES  - PRESSURE.
      HI  - HEAT INDEX.          WCI   - WIND CHILL INDEX.

*  THESE STATIONS ARE NOT NWS OR FAA STATIONS AND ARE NOT UNDER
   NWS QUALITY CONTROL.

LAZ038-040-048-061>063-065>067-069-172300-
SOUTHEAST LOUISIANA

CITY           SKY/WX    TMP DP  RH WIND       PRES   REMARKS
N.O. AUDUBON     N/A    N/A N/A N/A MISG        N/A
N.O. INTL ARPT CLOUDY    65  59  81 E13G23    30.14S
N.O. LAKEFRONT CLOUDY    63  60  90 E16       30.15S
N.O. DOWNTOWN* CLOUDY    63  55  77 E8G17     30.15S
SLIDELL        CLOUDY    63  58  83 SE3       30.15S
BATON ROUGE    CLOUDY    66  57  72 E10       30.12F
BOOTHVILLE     CLOUDY    64  61  90 E12       30.14S FOG
BELLE CHASSE   CLOUDY    65  58  78 E14       30.14R
BOGALUSA*        N/A     67  57  68 E8        30.17S
GALLIANO*      LGT RAIN  66  63  88 NE8       30.13S
NEW ROADS*       N/A     65  55  72 E8        30.13R
GONZALES*      MOCLDY    64  60  86 NE7       30.12F
HAMMOND*       CLOUDY    64  57  77 E7        30.16F
HOUMA*         CLOUDY    64  59  82 E15       30.12F HAZE
PORT FOURCHON* CLEAR     66  63  88 E9        30.14S FOG

$$

MSZ070-080>082-172300-
SOUTHERN MISSISSIPPI

CITY           SKY/WX    TMP DP  RH WIND       PRES   REMARKS
MCCOMB         CLOUDY    64  56  75 E7        30.16R
GULFPORT       CLOUDY    67  58  72 SE8       30.15F
BILOXI         CLOUDY    65  59  78 SE6       30.16S
PASCAGOULA     CLOUDY    68  58  70 CALM      30.15F

$$

COASTAL OBSERVATIONS
LAKE AND NEARSHORE STATIONS

STATION/POSITION TIME  TEMP    WIND        PRES    WAVE
                       AIR SEA DIR/SP/G            HT/PER
                 (UTC) (F)     (DEG/KT/KT) (MB)    (FT/S)
PASCAGOULA       2200   66      70/ 11/ 13 1020.2
WAVELAND YACHT   2200   63 67  110/  5/  8 1020.4
GRAND ISLE       2200   65 67   90/ 12/ 15 1020.4
SOUTHWEST PASS   2200   66 59   50/ 14/ 16 1019.8
NEW CANAL        2200   64 63   80/  7/ 12 1021.1
SHELL BEACH      2200   63 61   90/ 14/ 17 1020.3

OFFSHORE STATIONS

STATION/POSITION TIME  TEMP    WIND        PRES    WAVE
                       AIR SEA DIR/SP/G            HT/PER
                 (UTC) (F)     (DEG/KT/KT) (MB)    (FT/S)
64 S DAUPHIN ISL 2112   66 71   60/ 19/ 23 1020.1

$$




USA.gov is the U.S. government's official web portal to all federal, state and local government web resources and services.